Location: Newark
(15.5700°N, 75.3700°E)
Time: 06:02:38
(UTC+00:00)

ISS - Visible Passes

Search period start: 15 November 2019 00:00
Search period end: 25 November 2019 00:00
Orbit: 412 x 421 km, 51.6° (Epoch: 15 November)

Date Brightness Start Highest point End Pass type
(mag) Time Alt. Az. Time Alt. Az. Time Alt. Az.
15 Nov -2.0 00:11:38 10° NNW 00:14:37 29° NE 00:17:36 10° ESE visible
15 Nov -2.2 13:31:12 10° S 13:33:25 21° SE 13:33:25 21° SE visible
15 Nov -1.1 23:25:09 13° NNE 23:26:13 14° NE 23:28:09 10° E visible
16 Nov -1.3 14:19:04 10° WSW 14:20:43 22° W 14:20:43 22° W visible
17 Nov -3.5 00:12:24 19° NW 00:14:34 50° SW 00:17:49 10° SSE visible
17 Nov -3.6 13:30:21 10° SW 13:33:40 71° NW 13:35:00 33° NNE visible
17 Nov -3.1 23:26:44 54° E 23:26:44 54° E 23:29:33 10° SE visible
18 Nov -3.3 12:42:09 10° SSW 12:45:20 44° SE 12:48:32 10° NE visible
19 Nov -1.5 00:14:00 11° WSW 00:14:20 11° WSW 00:15:21 10° SW visible
19 Nov -1.1 13:31:31 10° W 13:33:38 16° NW 13:35:46 10° N visible
19 Nov -1.1 23:28:17 13° S 23:28:17 13° S 23:28:49 10° S visible
20 Nov -2.2 12:42:10 10° WSW 12:45:12 32° NW 12:48:14 10° NNE visible
